sat.trackr.live / text

‹ back to catalog

STARLINK-30155

NORAD 57475 · 2023-107U

PAYLOAD ACTIVE UNKNOWN

§ Identity

Operator
Country
US
Launch date
2023-07-28
Launch site
AFETR
Launch vehicle
Mass (kg)
RCS (m²)

Purposes: comms

External: N2YO · Heavens-Above · Gunter

§ Orbital elements

Epoch: 2026-09-20T10:14:44.858112Z

Period
94.27 min
Inclination
43.0024°
Eccentricity
0.0001602
Mean motion
15.27575350 rev/d
Perigee alt
482.0 km
Apogee alt
484.2 km
Semi-major
6,861.2 km
B*
4.4311e-6
RAAN
315.9873°
Arg perigee
267.3327°
Mean anomaly
92.7341°
Rev number
17,493

§ Raw data

STARLINK-301551 57475U 23107U   26263.42690808 -.00000140  00000+0  44311-5 0  99902 57475  43.0024 315.9873 0001602 267.3327  92.7341 15.27575350174938

JSON: /api/v1/satellites/57475 · /tle

For live sub-satellite position, see the globe view (requires WebGL).

§ Visibility from observer

Set your observer location to see the next 7 days of passes ≥ 10°. The values pass through the URL so the page stays shareable.

No JS? Fill the form by hand. The geolocation button needs JavaScript.